Flight Track Log - Related Links

Times and Time Zones

All times are in EDT time to prevent confusion due to time zone crossing. See the EGF3994 flight status page for this flight to view local times or setup timezone preferences in your user account.

Time Position Orientation Groundspeed Altitude Reporting Facility
EDT Latitude Longitude Course Direction KTS MPH feet Rate Location/Type
Sun 07:01:43 PM 41.9167 -87.8667 90° East 179 206 3,200  Level Chicago TRACON
Sun 07:02:44 PM 41.9000 -87.8000 109° East 238 274 4,700 1,061 Climbing Chicago TRACON
Sun 07:03:00 PM 41.9624 -87.4906 98° East  Level FlightAware Approximate
Sun 07:04:00 PM 41.9492 -87.3552 95° East  Level FlightAware Approximate
Sun 07:04:27 PM 41.9072 -87.6217 87° East 269 310 6,100  Level Chicago Center
Sun 07:05:00 PM 41.9395 -87.2193 95° East  Level FlightAware Approximate
Sun 07:05:30 PM 41.9147 -87.5153 85° East 284 327 8,700  Level Chicago Center
Sun 07:06:00 PM 41.9333 -87.0832 90° East  Level FlightAware Approximate
Sun 07:06:32 PM 41.9225 -87.4064 84° East 292 336 11,000  Level Chicago Center
Sun 07:07:00 PM 41.9333 -86.9605 90° East  Level FlightAware Approximate
Sun 07:07:34 PM 41.9294 -87.2953 85° East 297 342 13,200  Level Chicago Center
Sun 07:08:36 PM 41.9375 -87.1753 85° East 316 364 14,000 1,161 Climbing Chicago Center
Sun 07:09:38 PM 41.9461 -87.0139 86° East 353 406 15,600 1,500 Climbing Chicago Center
Sun 07:10:40 PM 41.9478 -86.8781 89° East 362 417 17,100 1,210 Climbing Chicago Center
Sun 07:11:42 PM 41.9492 -86.7397 89° East 367 422 18,100 1,258 Climbing Chicago Center
Sun 07:12:44 PM 41.9506 -86.5939 89° East 374 430 19,700 1,500 Climbing Chicago Center
Sun 07:13:46 PM 41.9478 -86.4500 91° East 382 440 21,200 1,355 Climbing Chicago Center
Sun 07:14:48 PM 41.9297 -86.3067 100° East 387 445 22,500 871 Climbing Chicago Center
Sun 07:15:50 PM 41.8647 -86.1883 126° Southeast 390 449 23,000 242 Climbing Chicago Center
Sun 07:16:52 PM 41.7653 -86.0536 135° Southeast 420 483 23,000  Level Chicago Center
Sun 07:17:54 PM 41.6817 -85.9364 134° Southeast 433 498 23,000  Level Chicago Center
Sun 07:18:56 PM 41.5983 -85.8194 134° Southeast 437 503 23,000  Level Chicago Center
Sun 07:19:58 PM 41.5133 -85.7019 134° Southeast 442 509 23,000  Level Chicago Center
Sun 07:21:00 PM 41.4292 -85.5844 134° Southeast 445 512 23,000  Level Chicago Center
Sun 07:22:02 PM 41.3278 -85.4428 134° Southeast 447 514 23,000  Level Chicago Center
Sun 07:23:04 PM 41.2431 -85.3267 134° Southeast 445 512 23,000  Level Chicago Center
Sun 07:24:06 PM 41.1569 -85.2092 134° Southeast 445 512 23,000 -871 Level Chicago Center
Sun 07:25:08 PM 41.0722 -85.0900 133° Southeast 445 512 21,200 -2,081 Descending Chicago Center
Sun 07:26:10 PM 40.9906 -84.9775 134° Southeast 438 504 18,700 -2,371 Descending Chicago Center
Sun 07:27:12 PM 40.8975 -84.8508 134° Southeast 418 481 16,300 -1,742 Descending Chicago Center
Sun 07:28:14 PM 40.8239 -84.7528 135° Southeast 395 455 15,100 -581 Descending Chicago Center
Sun 07:29:16 PM 40.7489 -84.6522 135° Southeast 388 447 15,100 -532 Level Chicago Center
Sun 07:30:18 PM 40.6728 -84.5522 135° Southeast 386 444 14,000 -1,326 Descending Chicago Center
Sun 07:30:51 PM 40.6125 -84.5131 154° Southeast 389 448 13,000 -1,645 Descending Indianapolis Center
Sun 07:31:20 PM 40.5628 -84.5069 175° South 383 441 12,300 -1,452 Descending Indianapolis Center
Sun 07:31:53 PM 40.5053 -84.5000 175° South 384 442 11,500 -1,180 Descending Indianapolis Center
Sun 07:32:21 PM 40.4592 -84.4953 176° South 375 432 11,100 -871 Descending Indianapolis Center
Sun 07:32:55 PM 40.4031 -84.4889 175° South 372 428 10,600 -885 Descending Indianapolis Center
Sun 07:33:22 PM 40.3531 -84.4833 175° South 352 405 10,200 -581 Descending Indianapolis Center
Sun 07:33:57 PM 40.3058 -84.4789 176° South 360 414 10,000 -100 Descending Indianapolis Center
Sun 07:34:22 PM 40.2597 -84.4733 175° South 341 392 10,100  Climbing Indianapolis Center
Sun 07:34:59 PM 40.2097 -84.4681 175° South 351 404 10,000  Descending Indianapolis Center
Sun 07:35:23 PM 40.1639 -84.4628 175° South 344 396 10,100  Climbing Indianapolis Center
Sun 07:36:00 PM 40.1142 -84.4572 175° South 347 399 10,000 -269 Descending Indianapolis Center
Sun 07:36:30 PM 40.0683 -84.4525 175° South 303 349 9,800 -1,258 Descending Indianapolis Center
Sun 07:37:02 PM 40.0308 -84.4472 174° South 325 374 8,700 -2,556 Descending Indianapolis Center
Sun 07:37:24 PM 40.0006 -84.4350 163° South 255 293 7,500 -2,516 Descending Indianapolis Center
Sun 07:38:04 PM 39.9664 -84.4153 156° South 271 312 6,100 -2,557 Descending Indianapolis Center
Sun 07:38:25 PM 39.9347 -84.3961 155° Southeast 222 255 4,900 -3,429 Descending Indianapolis Center

Login

Don't have an account? Register now (free) for customized features, flight alerts, and more!